Location: Saint-Restitut
(44.3351°N, 4.7915°E)
Time: 12:56:47
(UTC+00:00)

Cosmos 2278 Rocket - Pass Details

Date: 03 February 2023
Orbit: 841 x 845 km, 71.0° (Epoch: 19 March)

Event Time Altitude Azimuth Distance (km) Brightness Sun altitude
Rises 19:56:51 0° 336° (NNW) 3,414 5.8 -33.1°
Reaches altitude 10° 19:59:19 10° 339° (NNW) 2,475 4.9 -33.5°
Enters shadow 20:01:34 25° 344° (NNW) 1,664 3.9 -33.9°
